| time (UTC) | temp C | wind direction | speed KPH | gust KPH | rain 1hr cm | rain 24hr cm | rain mn cm | humidity % | barometer mb |
| 20260507015151 | 12 | 210 | 0.0 | 0.0 | 0.00 | 0.00 | 0.00 | 79 | 1018.7 |
| 20260507014648 | 12 | 249 | 0.0 | 0.0 | 0.00 | 0.00 | 0.00 | 79 | 1018.7 |
| 20260507014144 | 12 | 291 | 0.0 | 0.0 | 0.00 | 0.00 | 0.00 | 78 | 1018.5 |
| 20260507013641 | 12 | 145 | 0.0 | 1.6 | 0.00 | 0.00 | 0.00 | 78 | 1018.4 |
| 20260507013138 | 13 | 242 | 0.0 | 0.0 | 0.00 | 0.00 | 0.00 | 77 | 1018.5 |
| 20260507012636 | 13 | 192 | 0.0 | 0.0 | 0.00 | 0.00 | 0.00 | 77 | 1018.5 |
| 20260507012131 | 13 | 301 | 1.6 | 1.6 | 0.00 | 0.00 | 0.00 | 76 | 1018.2 |
| 20260507011630 | 13 | 129 | 1.6 | 1.6 | 0.00 | 0.00 | 0.00 | 75 | 1018.2 |
| 20260507011125 | 13 | 46 | 3.2 | 6.4 | 0.00 | 0.00 | 0.00 | 74 | 1018.1 |
| 20260507010620 | 14 | 234 | 0.0 | 0.0 | 0.00 | 0.00 | 0.00 | 74 | 1017.9 |
| 20260507010116 | 14 | 141 | 1.6 | 1.6 | 0.00 | 0.00 | 0.00 | 74 | 1017.9 |
| 20260507005614 | 14 | 329 | 1.6 | 1.6 | 0.00 | 0.00 | 0.00 | 73 | 1017.7 |
| 20260507005110 | 15 | 56 | 3.2 | 4.8 | 0.00 | 0.00 | 0.00 | 72 | 1017.7 |
| 20260507004607 | 15 | 188 | 0.0 | 0.0 | 0.00 | 0.00 | 0.00 | 72 | 1017.7 |
| 20260507004104 | 15 | 157 | 0.0 | 1.6 | 0.00 | 0.00 | 0.00 | 71 | 1017.6 |
| 20260507003600 | 15 | 17 | 4.8 | 6.4 | 0.00 | 0.00 | 0.00 | 71 | 1017.6 |
| 20260507003055 | 15 | 129 | 3.2 | 4.8 | 0.00 | 0.00 | 0.00 | 71 | 1017.6 |
| 20260507002552 | 15 | 66 | 3.2 | 3.2 | 0.00 | 0.00 | 0.00 | 71 | 1017.7 |
| 20260507002048 | 15 | 180 | 0.0 | 1.6 | 0.00 | 0.00 | 0.00 | 71 | 1017.5 |
| 20260507001544 | 15 | 115 | 1.6 | 3.2 | 0.00 | 0.00 | 0.00 | 71 | 1017.3 |
| 20260507001042 | 15 | 40 | 4.8 | 4.8 | 0.00 | 0.00 | 0.00 | 70 | 1017.6 |
| 20260507000538 | 15 | 49 | 1.6 | 3.2 | 0.00 | 0.00 | 0.00 | 70 | 1017.2 |
| 20260507000034 | 15 | 323 | 4.8 | 6.4 | 0.00 | 0.00 | 0.00 | 69 | 1017.2 |
| 20260506235532 | 16 | 160 | 1.6 | 1.6 | 0.00 | 0.00 | 0.00 | 69 | 1017.4 |
| 20260506235027 | 16 | 41 | 6.4 | 6.4 | 0.00 | 0.00 | 0.00 | 69 | 1017.1 |
| 20260506234525 | 16 | 58 | 1.6 | 3.2 | 0.00 | 0.00 | 0.00 | 69 | 1017.0 |
| 20260506234022 | 16 | 340 | 3.2 | 4.8 | 0.00 | 0.00 | 0.00 | 68 | 1017.1 |
| 20260506233518 | 16 | 29 | 3.2 | 3.2 | 0.00 | 0.00 | 0.00 | 68 | 1017.1 |
| 20260506233015 | 16 | 84 | 4.8 | 6.4 | 0.00 | 0.00 | 0.00 | 67 | 1016.9 |
| 20260506232511 | 16 | 39 | 1.6 | 3.2 | 0.00 | 0.00 | 0.00 | 67 | 1016.9 |
| 20260506232007 | 16 | 55 | 1.6 | 4.8 | 0.00 | 0.00 | 0.00 | 68 | 1016.9 |
| 20260506231505 | 16 | 350 | 3.2 | 9.7 | 0.00 | 0.00 | 0.00 | 69 | 1016.8 |
| 20260506231002 | 16 | 176 | 3.2 | 4.8 | 0.00 | 0.00 | 0.00 | 68 | 1016.7 |
| 20260506230458 | 16 | 70 | 4.8 | 6.4 | 0.00 | 0.00 | 0.00 | 67 | 1016.8 |
| 20260506225955 | 16 | 34 | 3.2 | 4.8 | 0.00 | 0.00 | 0.00 | 69 | 1016.8 |
| 20260506225452 | 16 | 91 | 4.8 | 9.7 | 0.00 | 0.00 | 0.00 | 68 | 1017.0 |
| 20260506224949 | 16 | 310 | 6.4 | 9.7 | 0.00 | 0.00 | 0.00 | 69 | 1016.7 |
| 20260506224446 | 16 | 349 | 6.4 | 6.4 | 0.00 | 0.00 | 0.00 | 68 | 1016.7 |
| 20260506223942 | 16 | 355 | 4.8 | 4.8 | 0.00 | 0.00 | 0.00 | 68 | 1016.8 |
| 20260506223438 | 16 | 42 | 6.4 | 9.7 | 0.00 | 0.00 | 0.00 | 68 | 1016.7 |
| 20260506222936 | 16 | 353 | 6.4 | 9.7 | 0.00 | 0.00 | 0.00 | 69 | 1016.7 |
| 20260506222432 | 16 | 331 | 6.4 | 9.7 | 0.00 | 0.00 | 0.00 | 67 | 1016.6 |
| 20260506221929 | 16 | 0 | 6.4 | 6.4 | 0.00 | 0.00 | 0.00 | 68 | 1016.4 |
| 20260506221426 | 16 | 30 | 4.8 | 4.8 | 0.00 | 0.00 | 0.00 | 67 | 1016.4 |
| 20260506220924 | 16 | 279 | 3.2 | 3.2 | 0.00 | 0.00 | 0.00 | 68 | 1016.4 |
| 20260506220419 | 16 | 70 | 3.2 | 3.2 | 0.00 | 0.00 | 0.00 | 67 | 1016.4 |
| 20260506215916 | 16 | 132 | 1.6 | 3.2 | 0.00 | 0.00 | 0.00 | 68 | 1016.5 |
| 20260506215412 | 16 | 10 | 3.2 | 4.8 | 0.00 | 0.00 | 0.00 | 67 | 1016.5 |
| 20260506214908 | 16 | 346 | 4.8 | 4.8 | 0.00 | 0.00 | 0.00 | 67 | 1016.6 |
| 20260506214405 | 16 | 344 | 3.2 | 4.8 | 0.00 | 0.00 | 0.00 | 66 | 1016.5 |
| 20260506213903 | 17 | 267 | 3.2 | 3.2 | 0.00 | 0.00 | 0.00 | 65 | 1016.6 |
| 20260506213400 | 17 | 333 | 6.4 | 6.4 | 0.00 | 0.00 | 0.00 | 65 | 1016.4 |
| 20260506212858 | 17 | 335 | 3.2 | 3.2 | 0.00 | 0.00 | 0.00 | 65 | 1016.4 |
| 20260506212353 | 17 | 345 | 8.0 | 9.7 | 0.00 | 0.00 | 0.00 | 65 | 1016.5 |
| 20260506211848 | 17 | 304 | 6.4 | 6.4 | 0.00 | 0.00 | 0.00 | 65 | 1016.4 |
| 20260506211344 | 17 | 346 | 4.8 | 4.8 | 0.00 | 0.00 | 0.00 | 63 | 1016.6 |
| 20260506210842 | 17 | 349 | 1.6 | 3.2 | 0.00 | 0.00 | 0.00 | 62 | 1016.8 |
| 20260506210338 | 17 | 85 | 1.6 | 1.6 | 0.00 | 0.00 | 0.00 | 61 | 1016.8 |
| 20260506205836 | 17 | 205 | 0.0 | 0.0 | 0.00 | 0.00 | 0.00 | 63 | 1016.8 |
| 20260506205332 | 17 | 99 | 1.6 | 3.2 | 0.00 | 0.00 | 0.00 | 64 | 1016.9 |
| 20260506204828 | 17 | 210 | 3.2 | 3.2 | 0.00 | 0.00 | 0.00 | 62 | 1017.0 |
| 20260506204326 | 17 | 308 | 3.2 | 3.2 | 0.00 | 0.00 | 0.00 | 63 | 1017.0 |
| 20260506203823 | 17 | 295 | 6.4 | 9.7 | 0.00 | 0.00 | 0.00 | 64 | 1017.3 |
| 20260506203320 | 18 | 11 | 0.0 | 1.6 | 0.00 | 0.00 | 0.00 | 60 | 1017.3 |
| 20260506202817 | 17 | 23 | 9.7 | 11.3 | 0.00 | 0.00 | 0.00 | 62 | 1017.3 |
| 20260506202314 | 16 | 104 | 3.2 | 3.2 | 0.00 | 0.00 | 0.00 | 64 | 1017.5 |
| 20260506201811 | 17 | 6 | 3.2 | 4.8 | 0.00 | 0.00 | 0.00 | 65 | 1017.4 |
| 20260506201308 | 17 | 197 | 0.0 | 0.0 | 0.00 | 0.00 | 0.00 | 65 | 1017.2 |
| 20260506200805 | 16 | 1 | 3.2 | 3.2 | 0.00 | 0.00 | 0.00 | 65 | 1017.1 |
| 20260506200301 | 17 | 55 | 3.2 | 4.8 | 0.00 | 0.00 | 0.00 | 61 | 1016.9 |
| 20260506195757 | 16 | 35 | 1.6 | 3.2 | 0.00 | 0.00 | 0.00 | 66 | 1016.8 |
| 20260506195254 | 17 | 20 | 4.8 | 6.4 | 0.00 | 0.00 | 0.00 | 63 | 1016.8 |
| 20260506194752 | 16 | 100 | 1.6 | 1.6 | 0.00 | 0.00 | 0.00 | 64 | 1016.8 |
| 20260506194248 | 16 | 324 | 3.2 | 4.8 | 0.00 | 0.00 | 0.00 | 65 | 1016.7 |
| 20260506193746 | 16 | 75 | 1.6 | 3.2 | 0.00 | 0.00 | 0.00 | 66 | 1016.5 |
| 20260506193242 | 16 | 323 | 3.2 | 6.4 | 0.00 | 0.00 | 0.00 | 65 | 1016.3 |
| 20260506192738 | 16 | 134 | 6.4 | 6.4 | 0.00 | 0.00 | 0.00 | 64 | 1016.3 |
| 20260506192235 | 16 | 330 | 4.8 | 6.4 | 0.00 | 0.00 | 0.00 | 64 | 1016.2 |
| 20260506191732 | 16 | 225 | 1.6 | 3.2 | 0.00 | 0.00 | 0.00 | 63 | 1016.4 |
| 20260506191228 | 16 | 323 | 3.2 | 4.8 | 0.00 | 0.00 | 0.00 | 64 | 1016.4 |
| 20260506190726 | 16 | 40 | 3.2 | 4.8 | 0.00 | 0.00 | 0.00 | 63 | 1016.7 |
| 20260506190222 | 16 | 33 | 3.2 | 4.8 | 0.00 | 0.00 | 0.00 | 64 | 1016.6 |
| 20260506185719 | 16 | 334 | 6.4 | 11.3 | 0.00 | 0.00 | 0.00 | 63 | 1016.6 |
| 20260506185215 | 16 | 266 | 6.4 | 9.7 | 0.00 | 0.00 | 0.00 | 64 | 1016.8 |
| 20260506184713 | 16 | 29 | 6.4 | 6.4 | 0.00 | 0.00 | 0.00 | 65 | 1016.6 |
| 20260506184210 | 15 | 14 | 12.9 | 17.7 | 0.00 | 0.00 | 0.00 | 64 | 1016.4 |
| 20260506183707 | 15 | 293 | 4.8 | 4.8 | 0.00 | 0.00 | 0.00 | 65 | 1016.8 |
| 20260506183203 | 15 | 71 | 3.2 | 4.8 | 0.00 | 0.00 | 0.00 | 66 | 1016.6 |
| 20260506182700 | 15 | 17 | 1.6 | 3.2 | 0.00 | 0.00 | 0.00 | 68 | 1016.6 |
| 20260506182157 | 15 | 273 | 4.8 | 4.8 | 0.00 | 0.00 | 0.00 | 67 | 1016.9 |
| 20260506181655 | 15 | 1 | 6.4 | 11.3 | 0.00 | 0.00 | 0.00 | 67 | 1017.3 |
| 20260506181152 | 15 | 50 | 3.2 | 4.8 | 0.00 | 0.00 | 0.00 | 67 | 1017.1 |
| 20260506180649 | 14 | 64 | 4.8 | 6.4 | 0.00 | 0.00 | 0.00 | 67 | 1017.1 |
| 20260506180145 | 15 | 53 | 1.6 | 1.6 | 0.00 | 0.00 | 0.00 | 67 | 1017.4 |
| 20260506175642 | 15 | 33 | 4.8 | 4.8 | 0.00 | 0.00 | 0.00 | 66 | 1017.2 |
| 20260506175139 | 15 | 329 | 4.8 | 4.8 | 0.00 | 0.00 | 0.00 | 66 | 1017.4 |
| 20260506174637 | 14 | 335 | 6.4 | 6.4 | 0.00 | 0.00 | 0.00 | 67 | 1017.5 |
| 20260506174134 | 15 | 313 | 6.4 | 9.7 | 0.00 | 0.00 | 0.00 | 66 | 1017.5 |
| 20260506173631 | 15 | 45 | 4.8 | 6.4 | 0.00 | 0.00 | 0.00 | 66 | 1017.5 |
| 20260506173128 | 14 | 18 | 4.8 | 6.4 | 0.00 | 0.00 | 0.00 | 67 | 1017.3 |
| 20260506172625 | 14 | 352 | 6.4 | 9.7 | 0.00 | 0.00 | 0.00 | 67 | 1017.5 |
| 20260506172121 | 14 | 28 | 8.0 | 11.3 | 0.00 | 0.00 | 0.00 | 68 | 1017.2 |
| 20260506171619 | 14 | 73 | 6.4 | 11.3 | 0.00 | 0.00 | 0.00 | 66 | 1017.3 |
| 20260506171117 | 13 | 24 | 6.4 | 11.3 | 0.00 | 0.00 | 0.00 | 69 | 1017.3 |
| 20260506170615 | 13 | 6 | 9.7 | 12.9 | 0.00 | 0.00 | 0.00 | 68 | 1017.2 |
| 20260506170111 | 13 | 11 | 6.4 | 11.3 | 0.00 | 0.00 | 0.00 | 69 | 1017.4 |
| 20260506165609 | 13 | 354 | 6.4 | 12.9 | 0.00 | 0.00 | 0.00 | 69 | 1017.6 |
| 20260506165105 | 13 | 12 | 8.0 | 11.3 | 0.00 | 0.00 | 0.00 | 68 | 1017.7 |
| 20260506164603 | 13 | 325 | 8.0 | 11.3 | 0.00 | 0.00 | 0.00 | 68 | 1017.3 |
| 20260506164100 | 13 | 306 | 1.6 | 1.6 | 0.00 | 0.00 | 0.00 | 70 | 1017.3 |
| 20260506163555 | 14 | 312 | 4.8 | 6.4 | 0.00 | 0.00 | 0.00 | 67 | 1017.4 |
| 20260506163052 | 14 | 24 | 6.4 | 9.7 | 0.00 | 0.00 | 0.00 | 67 | 1017.4 |
| 20260506162548 | 14 | 40 | 8.0 | 9.7 | 0.00 | 0.00 | 0.00 | 68 | 1017.7 |
| 20260506162045 | 13 | 59 | 1.6 | 1.6 | 0.00 | 0.00 | 0.00 | 70 | 1018.2 |
| 20260506161543 | 13 | 338 | 8.0 | 9.7 | 0.00 | 0.00 | 0.00 | 69 | 1018.3 |
| 20260506161039 | 13 | 179 | 1.6 | 1.6 | 0.00 | 0.00 | 0.00 | 69 | 1018.2 |
| 20260506160537 | 13 | 60 | 1.6 | 1.6 | 0.00 | 0.00 | 0.00 | 70 | 1018.2 |
| 20260506160034 | 13 | 162 | 1.6 | 1.6 | 0.00 | 0.00 | 0.00 | 70 | 1018.5 |
| 20260506155532 | 12 | 114 | 1.6 | 1.6 | 0.00 | 0.00 | 0.00 | 71 | 1018.7 |
| 20260506153703 | 12 | 36 | 3.2 | 3.2 | 0.00 | 0.00 | 0.00 | 72 | 1017.9 |
| 20260506153201 | 12 | 335 | 6.4 | 6.4 | 0.00 | 0.00 | 0.00 | 72 | 1017.6 |
| 20260506152658 | 12 | 123 | 0.0 | 0.0 | 0.00 | 0.00 | 0.00 | 72 | 1018.1 |
| 20260506152155 | 12 | 27 | 6.4 | 9.7 | 0.00 | 0.00 | 0.00 | 72 | 1017.9 |
| 20260506151654 | 12 | 308 | 6.4 | 9.7 | 0.00 | 0.00 | 0.00 | 72 | 1017.6 |
| 20260506151150 | 11 | 166 | 1.6 | 3.2 | 0.00 | 0.00 | 0.00 | 73 | 1017.8 |
| 20260506150647 | 11 | 10 | 4.8 | 4.8 | 0.00 | 0.00 | 0.00 | 73 | 1017.6 |
| 20260506150144 | 11 | 39 | 3.2 | 4.8 | 0.00 | 0.00 | 0.00 | 73 | 1017.6 |
| 20260506145641 | 11 | 340 | 4.8 | 4.8 | 0.00 | 0.00 | 0.00 | 73 | 1017.7 |
| 20260506145137 | 11 | 341 | 8.0 | 9.7 | 0.00 | 0.00 | 0.00 | 72 | 1017.9 |
| 20260506144635 | 11 | 338 | 4.8 | 6.4 | 0.00 | 0.00 | 0.00 | 73 | 1017.5 |
| 20260506144131 | 11 | 354 | 9.7 | 11.3 | 0.00 | 0.00 | 0.00 | 74 | 1017.6 |
| 20260506143629 | 11 | 342 | 6.4 | 11.3 | 0.00 | 0.00 | 0.00 | 74 | 1017.8 |
| 20260506143127 | 11 | 207 | 1.6 | 3.2 | 0.00 | 0.00 | 0.00 | 75 | 1017.9 |
| 20260506142625 | 11 | 23 | 1.6 | 3.2 | 0.00 | 0.00 | 0.00 | 75 | 1017.8 |
| 20260506142123 | 11 | 341 | 4.8 | 4.8 | 0.00 | 0.00 | 0.00 | 74 | 1017.9 |
| 20260506141620 | 11 | 5 | 8.0 | 11.3 | 0.00 | 0.00 | 0.00 | 74 | 1017.5 |
| 20260506141119 | 11 | 304 | 6.4 | 9.7 | 0.00 | 0.00 | 0.00 | 74 | 1017.4 |
| 20260506140616 | 11 | 352 | 4.8 | 4.8 | 0.00 | 0.00 | 0.00 | 73 | 1017.1 |
| 20260506140113 | 11 | 77 | 4.8 | 6.4 | 0.00 | 0.00 | 0.00 | 74 | 1017.1 |
| 20260506135610 | 11 | 337 | 6.4 | 9.7 | 0.00 | 0.00 | 0.00 | 74 | 1016.9 |
| 20260506135106 | 11 | 336 | 6.4 | 9.7 | 0.00 | 0.00 | 0.00 | 75 | 1016.7 |
| 20260506134602 | 11 | 173 | 3.2 | 4.8 | 0.00 | 0.00 | 0.00 | 75 | 1016.7 |
| 20260506134058 | 11 | 302 | 8.0 | 12.9 | 0.00 | 0.00 | 0.00 | 75 | 1016.8 |
| 20260506133556 | 11 | 244 | 4.8 | 4.8 | 0.00 | 0.00 | 0.00 | 75 | 1016.7 |
| 20260506133053 | 11 | 105 | 3.2 | 6.4 | 0.00 | 0.00 | 0.00 | 75 | 1016.6 |
| 20260506132550 | 10 | 320 | 6.4 | 12.9 | 0.00 | 0.00 | 0.00 | 75 | 1016.9 |
| 20260506132047 | 10 | 308 | 3.2 | 3.2 | 0.00 | 0.00 | 0.00 | 75 | 1016.6 |
| 20260506131544 | 10 | 8 | 8.0 | 14.5 | 0.00 | 0.00 | 0.00 | 75 | 1016.6 |
| 20260506131040 | 10 | 309 | 4.8 | 4.8 | 0.00 | 0.00 | 0.00 | 76 | 1016.5 |
| 20260506130538 | 10 | 7 | 3.2 | 3.2 | 0.00 | 0.00 | 0.00 | 76 | 1016.6 |
| 20260506130035 | 10 | 42 | 1.6 | 3.2 | 0.00 | 0.00 | 0.00 | 76 | 1016.4 |
| 20260506125533 | 10 | 359 | 3.2 | 3.2 | 0.00 | 0.00 | 0.00 | 77 | 1016.4 |
| 20260506125031 | 10 | 44 | 1.6 | 3.2 | 0.00 | 0.00 | 0.00 | 77 | 1016.2 |
| 20260506124528 | 10 | 318 | 1.6 | 3.2 | 0.00 | 0.00 | 0.00 | 77 | 1015.9 |
| 20260506124026 | 10 | 318 | 4.8 | 9.7 | 0.00 | 0.00 | 0.00 | 76 | 1016.2 |
| 20260506123524 | 10 | 282 | 1.6 | 3.2 | 0.00 | 0.00 | 0.00 | 77 | 1015.7 |
| 20260506123021 | 10 | 6 | 1.6 | 3.2 | 0.00 | 0.00 | 0.00 | 77 | 1015.8 |
| 20260506122518 | 10 | 36 | 8.0 | 11.3 | 0.00 | 0.00 | 0.00 | 77 | 1016.0 |
| 20260506122016 | 10 | 353 | 4.8 | 4.8 | 0.00 | 0.00 | 0.00 | 77 | 1015.9 |
| 20260506121513 | 10 | 348 | 3.2 | 6.4 | 0.00 | 0.00 | 0.00 | 78 | 1016.2 |
| 20260506121009 | 10 | 356 | 3.2 | 3.2 | 0.00 | 0.00 | 0.00 | 78 | 1015.8 |
| 20260506120508 | 10 | 352 | 3.2 | 3.2 | 0.00 | 0.00 | 0.00 | 78 | 1015.7 |
| 20260506120005 | 10 | 27 | 3.2 | 4.8 | 0.00 | 0.00 | 0.00 | 78 | 1015.9 |
| 20260506115502 | 10 | 17 | 3.2 | 4.8 | 0.00 | 0.00 | 0.00 | 79 | 1015.7 |
| 20260506115001 | 10 | 236 | 3.2 | 3.2 | 0.00 | 0.00 | 0.00 | 79 | 1015.9 |
| 20260506114457 | 10 | 354 | 4.8 | 9.7 | 0.00 | 0.00 | 0.00 | 79 | 1015.6 |
| 20260506113956 | 10 | 63 | 3.2 | 4.8 | 0.00 | 0.00 | 0.00 | 79 | 1015.8 |
| 20260506113453 | 10 | 348 | 4.8 | 6.4 | 0.00 | 0.00 | 0.00 | 80 | 1015.6 |
| 20260506112950 | 10 | 21 | 4.8 | 4.8 | 0.00 | 0.00 | 0.00 | 80 | 1015.6 |
| 20260506112447 | 10 | 352 | 6.4 | 6.4 | 0.00 | 0.00 | 0.00 | 80 | 1015.6 |
| 20260506111944 | 10 | 43 | 3.2 | 3.2 | 0.00 | 0.00 | 0.00 | 81 | 1015.2 |
| 20260506111443 | 10 | 321 | 4.8 | 6.4 | 0.00 | 0.00 | 0.00 | 81 | 1015.3 |
| 20260506110939 | 10 | 103 | 1.6 | 1.6 | 0.00 | 0.00 | 0.00 | 81 | 1015.5 |
| 20260506110437 | 10 | 8 | 3.2 | 4.8 | 0.00 | 0.00 | 0.00 | 82 | 1015.3 |
| 20260506105933 | 10 | 308 | 6.4 | 6.4 | 0.00 | 0.00 | 0.00 | 82 | 1015.4 |
| 20260506105430 | 10 | 340 | 4.8 | 4.8 | 0.00 | 0.00 | 0.00 | 82 | 1015.3 |
| 20260506104927 | 10 | 343 | 6.4 | 11.3 | 0.00 | 0.00 | 0.00 | 82 | 1015.3 |
| 20260506104425 | 10 | 346 | 8.0 | 11.3 | 0.00 | 0.00 | 0.00 | 82 | 1015.1 |
| 20260506103923 | 10 | 353 | 6.4 | 9.7 | 0.00 | 0.00 | 0.00 | 82 | 1015.3 |
| 20260506103420 | 10 | 13 | 6.4 | 11.3 | 0.00 | 0.00 | 0.00 | 82 | 1015.0 |
| 20260506102917 | 10 | 215 | 4.8 | 6.4 | 0.00 | 0.00 | 0.00 | 82 | 1015.0 |
| 20260506102415 | 10 | 333 | 4.8 | 6.4 | 0.00 | 0.00 | 0.00 | 82 | 1015.1 |
| 20260506101912 | 10 | 334 | 8.0 | 11.3 | 0.00 | 0.00 | 0.00 | 82 | 1015.1 |
| 20260506101408 | 10 | 344 | 6.4 | 11.3 | 0.00 | 0.00 | 0.00 | 83 | 1014.8 |
| 20260506100906 | 10 | 322 | 4.8 | 6.4 | 0.00 | 0.00 | 0.00 | 82 | 1014.8 |
| 20260506100404 | 10 | 266 | 4.8 | 6.4 | 0.00 | 0.00 | 0.00 | 82 | 1014.6 |
| 20260506095902 | 10 | 329 | 3.2 | 3.2 | 0.00 | 0.00 | 0.00 | 82 | 1014.6 |
| 20260506095400 | 10 | 324 | 4.8 | 6.4 | 0.00 | 0.00 | 0.00 | 81 | 1014.8 |
| 20260506094856 | 10 | 8 | 6.4 | 9.7 | 0.00 | 0.00 | 0.00 | 81 | 1014.8 |
| 20260506094355 | 10 | 2 | 8.0 | 11.3 | 0.00 | 0.00 | 0.00 | 81 | 1014.4 |
| 20260506093852 | 10 | 10 | 9.7 | 12.9 | 0.00 | 0.00 | 0.00 | 81 | 1014.4 |
| 20260506093350 | 10 | 2 | 9.7 | 12.9 | 0.00 | 0.00 | 0.00 | 80 | 1014.6 |
| 20260506092847 | 10 | 2 | 3.2 | 9.7 | 0.00 | 0.00 | 0.00 | 80 | 1014.4 |
| 20260506092345 | 10 | 86 | 4.8 | 4.8 | 0.00 | 0.00 | 0.00 | 79 | 1014.1 |
| 20260506091841 | 10 | 336 | 8.0 | 11.3 | 0.00 | 0.00 | 0.00 | 79 | 1013.8 |
| 20260506091339 | 10 | 37 | 4.8 | 4.8 | 0.00 | 0.00 | 0.00 | 79 | 1014.0 |
| 20260506090836 | 10 | 337 | 3.2 | 4.8 | 0.00 | 0.00 | 0.00 | 79 | 1013.9 |
| 20260506090334 | 10 | 328 | 6.4 | 9.7 | 0.00 | 0.00 | 0.00 | 79 | 1013.8 |
| 20260506085830 | 10 | 356 | 3.2 | 3.2 | 0.00 | 0.00 | 0.00 | 79 | 1013.7 |
| 20260506085326 | 10 | 352 | 3.2 | 4.8 | 0.00 | 0.00 | 0.00 | 79 | 1013.8 |
| 20260506084823 | 10 | 255 | 1.6 | 3.2 | 0.00 | 0.00 | 0.00 | 79 | 1013.7 |
| 20260506084320 | 11 | 331 | 3.2 | 4.8 | 0.00 | 0.00 | 0.00 | 79 | 1013.7 |
| 20260506083817 | 11 | 25 | 3.2 | 6.4 | 0.00 | 0.00 | 0.00 | 78 | 1013.5 |
| 20260506083314 | 11 | 190 | 3.2 | 3.2 | 0.00 | 0.00 | 0.00 | 78 | 1013.4 |
| 20260506082812 | 11 | 356 | 3.2 | 3.2 | 0.00 | 0.00 | 0.00 | 78 | 1013.4 |
| 20260506082308 | 11 | 295 | 3.2 | 4.8 | 0.00 | 0.00 | 0.00 | 78 | 1013.3 |
| 20260506081805 | 11 | 348 | 3.2 | 3.2 | 0.00 | 0.00 | 0.00 | 77 | 1013.6 |
| 20260506081302 | 11 | 259 | 6.4 | 6.4 | 0.00 | 0.00 | 0.00 | 77 | 1013.4 |
| 20260506080800 | 11 | 326 | 3.2 | 4.8 | 0.00 | 0.00 | 0.00 | 77 | 1013.2 |
| 20260506080256 | 11 | 55 | 3.2 | 3.2 | 0.00 | 0.00 | 0.00 | 78 | 1013.5 |
| 20260506073240 | 11 | 306 | 4.8 | 6.4 | 0.00 | 0.00 | 0.00 | 78 | 1013.4 |
| 20260506072737 | 11 | 331 | 6.4 | 6.4 | 0.00 | 0.00 | 0.00 | 78 | 1013.4 |
| 20260506072235 | 11 | 287 | 3.2 | 3.2 | 0.00 | 0.00 | 0.00 | 77 | 1013.2 |
| 20260506071732 | 11 | 29 | 3.2 | 4.8 | 0.00 | 0.00 | 0.00 | 77 | 1013.1 |
| 20260506071230 | 11 | 7 | 1.6 | 1.6 | 0.00 | 0.00 | 0.00 | 77 | 1013.4 |
| 20260506070727 | 11 | 0 | 4.8 | 6.4 | 0.00 | 0.00 | 0.00 | 77 | 1013.0 |
| 20260506070224 | 11 | 351 | 3.2 | 3.2 | 0.00 | 0.00 | 0.00 | 78 | 1013.2 |
| 20260506062200 | 11 | 14 | 4.8 | 9.7 | 0.00 | 0.00 | 0.00 | 78 | 1012.5 |
| 20260506061656 | 11 | 327 | 1.6 | 3.2 | 0.00 | 0.00 | 0.00 | 78 | 1012.7 |
| 20260506061154 | 11 | 46 | 6.4 | 9.7 | 0.00 | 0.00 | 0.00 | 78 | 1013.0 |
| 20260506060653 | 11 | 311 | 6.4 | 6.4 | 0.00 | 0.00 | 0.00 | 78 | 1012.9 |
| 20260506060149 | 11 | 79 | 3.2 | 4.8 | 0.00 | 0.00 | 0.00 | 78 | 1012.9 |
| 20260506051121 | 12 | 4 | 4.8 | 6.4 | 0.00 | 0.00 | 0.00 | 77 | 1012.8 |
| 20260506050619 | 12 | 37 | 4.8 | 9.7 | 0.00 | 0.00 | 0.00 | 77 | 1012.9 |
| 20260506050116 | 12 | 48 | 4.8 | 6.4 | 0.00 | 0.00 | 0.00 | 77 | 1013.0 |
| 20260506045109 | 12 | 323 | 6.4 | 6.4 | 0.00 | 0.00 | 0.00 | 77 | 1013.0 |
| 20260506044607 | 12 | 330 | 6.4 | 6.4 | 0.00 | 0.00 | 0.00 | 77 | 1012.9 |
| 20260506044104 | 12 | 340 | 6.4 | 11.3 | 0.00 | 0.00 | 0.00 | 77 | 1013.1 |
| 20260506043601 | 12 | 303 | 4.8 | 11.3 | 0.00 | 0.00 | 0.00 | 77 | 1012.9 |
| 20260506043059 | 12 | 2 | 4.8 | 6.4 | 0.00 | 0.00 | 0.00 | 77 | 1013.0 |
| 20260506042558 | 12 | 39 | 6.4 | 11.3 | 0.00 | 0.00 | 0.00 | 77 | 1013.2 |
| 20260506042056 | 12 | 17 | 4.8 | 6.4 | 0.00 | 0.00 | 0.00 | 78 | 1013.1 |
| 20260506041554 | 12 | 356 | 4.8 | 4.8 | 0.00 | 0.00 | 0.00 | 78 | 1013.2 |
| 20260506041050 | 12 | 303 | 4.8 | 4.8 | 0.00 | 0.00 | 0.00 | 78 | 1013.0 |
| 20260506040549 | 12 | 15 | 4.8 | 4.8 | 0.00 | 0.00 | 0.00 | 78 | 1013.2 |
| 20260506040044 | 12 | 46 | 4.8 | 6.4 | 0.00 | 0.00 | 0.00 | 78 | 1012.9 |
| 20260506035542 | 12 | 12 | 6.4 | 11.3 | 0.00 | 0.00 | 0.00 | 78 | 1012.8 |
| 20260506035038 | 12 | 36 | 3.2 | 4.8 | 0.00 | 0.00 | 0.00 | 78 | 1012.8 |
| 20260506034536 | 12 | 21 | 3.2 | 4.8 | 0.00 | 0.00 | 0.00 | 78 | 1012.9 |
| 20260506034032 | 12 | 333 | 6.4 | 6.4 | 0.00 | 0.00 | 0.00 | 78 | 1013.1 |
| 20260506033530 | 12 | 20 | 4.8 | 6.4 | 0.00 | 0.00 | 0.00 | 78 | 1013.0 |
| 20260506033027 | 12 | 99 | 3.2 | 3.2 | 0.00 | 0.00 | 0.00 | 79 | 1013.0 |
| 20260506032524 | 12 | 341 | 3.2 | 3.2 | 0.00 | 0.00 | 0.00 | 79 | 1013.1 |
| 20260506032020 | 12 | 352 | 8.0 | 9.7 | 0.00 | 0.00 | 0.00 | 78 | 1013.1 |
| 20260506031518 | 12 | 321 | 3.2 | 3.2 | 0.00 | 0.00 | 0.00 | 79 | 1012.9 |
| 20260506031015 | 12 | 327 | 1.6 | 3.2 | 0.00 | 0.00 | 0.00 | 79 | 1012.9 |
| 20260506030513 | 12 | 341 | 4.8 | 6.4 | 0.00 | 0.00 | 0.00 | 79 | 1012.6 |
| 20260506030010 | 13 | 331 | 6.4 | 6.4 | 0.00 | 0.00 | 0.00 | 79 | 1012.5 |
| 20260506025507 | 13 | 352 | 4.8 | 6.4 | 0.00 | 0.00 | 0.00 | 79 | 1012.4 |
| 20260506025003 | 13 | 21 | 3.2 | 3.2 | 0.00 | 0.00 | 0.00 | 80 | 1012.3 |
| 20260506024500 | 13 | 343 | 8.0 | 11.3 | 0.00 | 0.00 | 0.00 | 80 | 1012.3 |
| 20260506023956 | 13 | 119 | 3.2 | 4.8 | 0.00 | 0.00 | 0.00 | 80 | 1012.3 |
| 20260506023453 | 13 | 354 | 3.2 | 3.2 | 0.00 | 0.00 | 0.00 | 80 | 1011.6 |
| 20260506022949 | 13 | 25 | 3.2 | 3.2 | 0.00 | 0.00 | 0.00 | 80 | 1011.3 |
| 20260506022447 | 13 | 106 | 1.6 | 3.2 | 0.00 | 0.00 | 0.00 | 80 | 1011.4 |
| 20260506021945 | 13 | 347 | 3.2 | 4.8 | 0.00 | 0.00 | 0.00 | 80 | 1011.1 |
| 20260506021442 | 13 | 322 | 4.8 | 6.4 | 0.00 | 0.00 | 0.00 | 80 | 1010.9 |
| 20260506020939 | 13 | 52 | 8.0 | 11.3 | 0.00 | 0.00 | 0.00 | 80 | 1011.0 |
| 20260506020437 | 13 | 173 | 3.2 | 4.8 | 0.00 | 0.00 | 0.00 | 80 | 1010.2 |
| 20260506015934 | 13 | 306 | 9.7 | 11.3 | 0.00 | 0.00 | 0.00 | 80 | 1010.2 |